Port Aransas, TX

2:33 PM CDT on June 25, 2017 (GMT -0500)
Port Aransas

Weather History for KRAS - February, 2013

Change the Weather History Date:

Saturday, February 16, 2013

  Actual Average (KNGP) Record (KNGP)
Temperature  
Mean Temperature 52 °F -  
Max Temperature 59 °F 67 °F 80 °F (2008)
Min Temperature 46 °F 53 °F 36 °F (2007)
Degree Days  
Heating Degree Days 12    
Growing Degree Days 2 (Base 50)    
Moisture  
Dew Point 35 °F    
Average Humidity 50    
Maximum Humidity 67    
Minimum Humidity 29    
Precipitation  
Precipitation 0.00 in - - ()
Sea Level Pressure  
Sea Level Pressure 30.36 in    
Wind  
Wind Speed 14 mph (ENE)    
Max Wind Speed 22 mph    
Max Gust Speed 31 mph    
Visibility 10 miles    
Events      
Averages and records for this station are not official NWS values.
T = Trace of Precipitation, MM = Missing Value Source: NWS Daily Summary

Daily Weather History Graph

Daily Weather History Graph

Search for Another Location

Airport or City:

Trip Planner

Search our weather history database for the weather conditions in past years. The results will help you decide how hot, cold, wet, or windy it might be!

Date:

Astronomy

Feb. 16, 2013 Rise Set
Actual Time 7:04 AM CST 6:20 PM CST
Civil Twilight 6:40 AM CST 6:44 PM CST
Nautical Twilight 6:13 AM CST 7:11 PM CST
Astronomical Twilight 5:46 AM CST 7:39 PM CST
Moon 10:56 AM CST (2/16) No Moon Set
Length of Visible Light 12h 03m
Length of Day
11h 15m
Waxing Crescent, 39% of the Moon is Illuminated
Feb 16
Waxing Crescent
Feb 17
First Quarter
Feb 25
Full
Mar 4
Last Quarter
Mar 11
New

Hourly Weather History & Observations

Time (CST) Temp. Windchill Dew Point Humidity Pressure Visibility Wind Dir Wind Speed Gust Speed Precip Events Conditions
12:15 AM 53.6 °F - 42.8 °F 67% 30.30 in 10.0 mi NNE 21.9 mph 31.1 mph N/A   Overcast
12:35 AM 53.6 °F - 42.8 °F 67% 30.32 in 10.0 mi NNE 20.7 mph 29.9 mph N/A   Overcast
12:55 AM 53.6 °F - 41.0 °F 62% 30.33 in 10.0 mi NNE 21.9 mph 28.8 mph N/A   Overcast
1:15 AM 53.6 °F - 42.8 °F 67% 30.33 in 10.0 mi North 20.7 mph 25.3 mph N/A   Overcast
1:35 AM 53.6 °F - 41.0 °F 62% 30.34 in 10.0 mi North 20.7 mph 31.1 mph N/A   Overcast
1:55 AM 53.6 °F - 41.0 °F 62% 30.35 in 10.0 mi North 18.4 mph 24.2 mph N/A   Overcast
2:15 AM 51.8 °F - 41.0 °F 67% 30.35 in 10.0 mi North 18.4 mph - N/A   Overcast
2:35 AM 51.8 °F - 39.2 °F 62% 30.35 in 10.0 mi North 16.1 mph 23.0 mph N/A   Mostly Cloudy
2:55 AM 51.8 °F - 41.0 °F 67% 30.35 in 10.0 mi North 15.0 mph - N/A   Mostly Cloudy
3:15 AM 51.8 °F - 39.2 °F 62% 30.35 in 10.0 mi North 17.3 mph - N/A   Mostly Cloudy
3:35 AM 50.0 °F - 37.4 °F 62% 30.35 in 10.0 mi North 17.3 mph - N/A   Mostly Cloudy
3:55 AM 50.0 °F - 35.6 °F 58% 30.36 in 10.0 mi North 15.0 mph - N/A   Overcast
4:15 AM 50.0 °F - 32.0 °F 50% 30.37 in 10.0 mi North 16.1 mph - N/A   Mostly Cloudy
4:35 AM 50.0 °F - 32.0 °F 50% 30.38 in 10.0 mi North 13.8 mph 24.2 mph N/A   Mostly Cloudy
5:15 AM 48.2 °F - 32.0 °F 54% 30.39 in 10.0 mi North 16.1 mph - N/A   Scattered Clouds
5:35 AM 48.2 °F - 32.0 °F 54% 30.40 in 10.0 mi North 12.7 mph 19.6 mph N/A   Clear
5:55 AM 46.4 °F 40.4 °F 32.0 °F 57% 30.40 in 10.0 mi North 13.8 mph 19.6 mph N/A   Clear
6:15 AM 46.4 °F 41.1 °F 32.0 °F 57% 30.40 in 10.0 mi North 11.5 mph - N/A   Clear
6:35 AM 46.4 °F 41.9 °F 32.0 °F 57% 30.40 in 10.0 mi North 9.2 mph - N/A   Clear
6:55 AM 46.4 °F 40.7 °F 32.0 °F 57% 30.41 in 10.0 mi North 12.7 mph - N/A   Clear
7:15 AM 46.4 °F 39.5 °F 32.0 °F 57% 30.42 in 10.0 mi North 17.3 mph 21.9 mph N/A   Clear
7:35 AM 46.4 °F 40.1 °F 32.0 °F 57% 30.43 in 10.0 mi North 15.0 mph - N/A   Clear
7:55 AM 46.4 °F 39.8 °F 32.0 °F 57% 30.44 in 10.0 mi North 16.1 mph - N/A   Clear
8:15 AM 48.2 °F - 32.0 °F 54% 30.45 in 10.0 mi North 16.1 mph 21.9 mph N/A   Clear
8:35 AM 50.0 °F - 32.0 °F 50% 30.46 in 10.0 mi North 15.0 mph - N/A   Clear
8:55 AM 50.0 °F - 32.0 °F 50% 30.47 in 10.0 mi NNE 17.3 mph 23.0 mph N/A   Clear
9:15 AM 50.0 °F - 30.2 °F 47% 30.47 in 10.0 mi NNE 18.4 mph - N/A   Clear
9:35 AM 51.8 °F - 30.2 °F 44% 30.47 in 10.0 mi NNE 16.1 mph - N/A   Clear
12:15 PM 55.4 °F - 28.4 °F 36% 30.44 in 10.0 mi North 8.1 mph - N/A   Clear
12:35 PM 55.4 °F - 28.4 °F 36% 30.42 in 10.0 mi NNW 5.8 mph - N/A   Clear
12:55 PM 59.0 °F - 28.4 °F 31% 30.41 in 10.0 mi WNW 5.8 mph - N/A   Clear
1:15 PM 57.2 °F - 28.4 °F 33% 30.40 in 10.0 mi Calm Calm - N/A   Clear
1:35 PM 59.0 °F - 26.6 °F 29% 30.38 in 10.0 mi NNE 4.6 mph - N/A   Clear
1:55 PM 59.0 °F - 26.6 °F 29% 30.37 in 10.0 mi Calm Calm - N/A   Clear
2:15 PM 59.0 °F - 32.0 °F 36% 30.36 in 10.0 mi SSE 6.9 mph - N/A   Clear
2:35 PM 59.0 °F - 32.0 °F 36% 30.35 in 10.0 mi SSE 6.9 mph - N/A   Clear
2:55 PM 59.0 °F - 32.0 °F 36% 30.35 in 10.0 mi SSE 5.8 mph - N/A   Clear
3:15 PM 59.0 °F - 32.0 °F 36% 30.34 in 10.0 mi South 6.9 mph - N/A   Clear
3:55 PM 57.2 °F - 33.8 °F 41% 30.32 in 10.0 mi South 8.1 mph - N/A   Clear
4:15 PM 57.2 °F - 32.0 °F 38% 30.32 in 10.0 mi SSE 6.9 mph - N/A   Clear
4:35 PM 57.2 °F - 32.0 °F 38% 30.32 in 10.0 mi SSE 5.8 mph - N/A   Clear
4:55 PM 59.0 °F - 32.0 °F 36% 30.31 in 10.0 mi SSE 5.8 mph - N/A   Clear
5:15 PM 57.2 °F - 32.0 °F 38% 30.30 in 10.0 mi SSE 6.9 mph - N/A   Clear
5:55 PM 55.4 °F - 33.8 °F 44% 30.30 in 10.0 mi SE 5.8 mph - N/A   Clear
6:15 PM 55.4 °F - 35.6 °F 47% 30.30 in 10.0 mi SSE 5.8 mph - N/A   Clear
6:35 PM 55.4 °F - 35.6 °F 47% 30.30 in 10.0 mi SSE 8.1 mph - N/A   Clear
6:55 PM 55.4 °F - 35.6 °F 47% 30.30 in 10.0 mi SSE 8.1 mph - N/A   Clear
7:15 PM 55.4 °F - 35.6 °F 47% 30.30 in 10.0 mi SSE 6.9 mph - N/A   Clear
7:35 PM 53.6 °F - 35.6 °F 51% 30.30 in 10.0 mi South 6.9 mph - N/A   Clear
7:55 PM 53.6 °F - 35.6 °F 51% 30.30 in 10.0 mi South 5.8 mph - N/A   Clear
8:15 PM 55.4 °F - 35.6 °F 47% 30.30 in 10.0 mi South 6.9 mph - N/A   Clear
8:55 PM 53.6 °F - 37.4 °F 54% 30.31 in 10.0 mi South 5.8 mph - N/A   Clear
9:15 PM 55.4 °F - 37.4 °F 51% 30.31 in 10.0 mi South 8.1 mph - N/A   Clear
9:35 PM 55.4 °F - 37.4 °F 51% 30.31 in 10.0 mi South 8.1 mph - N/A   Clear
9:55 PM 55.4 °F - 39.2 °F 54% 30.31 in 10.0 mi South 8.1 mph - N/A   Clear
10:15 PM 55.4 °F - 39.2 °F 54% 30.31 in 10.0 mi South 9.2 mph - N/A   Clear
10:35 PM 55.4 °F - 39.2 °F 54% 30.31 in 10.0 mi South 9.2 mph - N/A   Clear
10:55 PM 55.4 °F - 41.0 °F 58% 30.30 in 10.0 mi South 9.2 mph - N/A   Clear
11:15 PM 55.4 °F - 41.0 °F 58% 30.30 in 10.0 mi South 10.4 mph - N/A   Clear
11:35 PM 55.4 °F - 41.0 °F 58% 30.29 in 10.0 mi South 9.2 mph - N/A   Clear
11:55 PM 55.4 °F - 41.0 °F 58% 30.28 in 10.0 mi SSE 10.4 mph - N/A   Clear